Custer, SD

10:07 PM MDT on August 24, 2016 (GMT -0600)
Custer County

Weather History for KCUT - October, 2011

Change the Weather History Date:

Thursday, October 20, 2011

  Actual Average Record
Temperature  
Mean Temperature 45 °F 42 °F  
Max Temperature 63 °F 53 °F 75 °F (1947)
Min Temperature 26 °F 30 °F 10 °F (1976)
Degree Days  
Heating Degree Days 20 24  
Month to date heating degree days 334 415  
Since 1 July heating degree days 686 901  
Cooling Degree Days 0 0  
Month to date cooling degree days 0 0  
Year to date cooling degree days 267 177  
Moisture  
Dew Point 26 °F    
Average Humidity 53    
Maximum Humidity 81    
Minimum Humidity 25    
Precipitation  
Precipitation 0.00 in 0.05 in 0.57 in (1957)
Month to date precipitation 0.33 1.14  
Year to date precipitation 19.99 17.63  
Sea Level Pressure  
Sea Level Pressure 29.97 in    
Wind  
Wind Speed 4 mph (NNW)    
Max Wind Speed 14 mph    
Max Gust Speed 17 mph    
Visibility 10 miles    
Events      
T = Trace of Precipitation, MM = Missing Value Source: NWS Daily Summary

Daily Weather History Graph

Daily Weather History Graph

Search for Another Location

Airport or City:

Trip Planner

Search our weather history database for the weather conditions in past years. The results will help you decide how hot, cold, wet, or windy it might be!

Date:

Astronomy

Oct. 20, 2011 Rise Set
Actual Time 7:14 AM MDT 6:03 PM MDT
Civil Twilight 6:45 AM MDT 6:32 PM MDT
Nautical Twilight 6:12 AM MDT 7:05 PM MDT
Astronomical Twilight 5:38 AM MDT 7:38 PM MDT
Moon No Moon Rise 2:25 PM MDT (10/20)
Length of Visible Light 11h 46m
Length of Day
10h 48m
Last Quarter, 43% of the Moon is Illuminated
Oct 20
Last Quarter
Oct 26
New
Nov 2
First Quarter
Nov 10
Full
Nov 18
Last Quarter

Hourly Weather History & Observations

Time (MDT) Temp. Windchill Dew Point Humidity Pressure Visibility Wind Dir Wind Speed Gust Speed Precip Events Conditions
12:53 AM 27.0 °F 23.0 °F 21.9 °F 81% 29.98 in 10.0 mi NW 3.5 mph - N/A   Clear
1:53 AM 28.9 °F 25.2 °F 23.0 °F 78% 29.97 in 10.0 mi NW 3.5 mph - N/A   Clear
2:53 AM 28.0 °F 24.2 °F 21.9 °F 78% 29.96 in 10.0 mi NW 3.5 mph - N/A   Clear
3:53 AM 28.9 °F 25.2 °F 21.9 °F 75% 29.94 in 10.0 mi WNW 3.5 mph - N/A   Clear
4:53 AM 28.0 °F 22.8 °F 21.9 °F 78% 29.95 in 10.0 mi NW 4.6 mph - N/A   Clear
5:53 AM 30.9 °F 26.2 °F 23.0 °F 72% 29.96 in 10.0 mi WNW 4.6 mph - N/A   Clear
6:53 AM 30.9 °F 26.2 °F 23.0 °F 72% 29.98 in 10.0 mi NW 4.6 mph - N/A   Clear
7:53 AM 37.0 °F 32.4 °F 21.9 °F 54% 29.99 in 10.0 mi WNW 5.8 mph - N/A   Clear
8:53 AM 46.0 °F - 24.1 °F 42% 29.97 in 10.0 mi Calm Calm - N/A   Clear
9:53 AM 54.0 °F - 24.1 °F 31% 29.96 in 10.0 mi NNW 3.5 mph - N/A   Clear
10:53 AM 57.0 °F - 24.1 °F 28% 29.95 in 10.0 mi Variable 3.5 mph - N/A   Clear
11:53 AM 60.1 °F - 24.1 °F 25% 29.94 in 10.0 mi Calm Calm - N/A   Clear
12:53 PM 62.1 °F - 27.0 °F 26% 29.91 in 10.0 mi SSE 8.1 mph - N/A   Clear
1:53 PM 61.0 °F - 28.9 °F 30% 29.91 in 10.0 mi ESE 8.1 mph 16.1 mph N/A   Clear
2:53 PM 60.1 °F - 28.0 °F 30% 29.93 in 10.0 mi Variable 6.9 mph - N/A   Clear
3:53 PM 60.1 °F - 28.9 °F 31% 29.94 in 10.0 mi ENE 8.1 mph - N/A   Clear
4:53 PM 55.9 °F - 28.9 °F 36% 29.98 in 10.0 mi East 5.8 mph - N/A   Clear
5:53 PM 54.0 °F - 28.0 °F 37% 29.99 in 8.0 mi Calm Calm - N/A   Clear
6:53 PM 51.1 °F - 28.9 °F 43% 30.03 in 10.0 mi NW 4.6 mph - N/A   Clear
7:53 PM 48.0 °F - 28.0 °F 46% 30.01 in 10.0 mi North 4.6 mph - N/A   Clear
8:53 PM 44.1 °F 41.5 °F 28.0 °F 53% 30.00 in 10.0 mi NW 4.6 mph - N/A   Clear
9:53 PM 45.0 °F 42.6 °F 28.9 °F 53% 29.98 in 10.0 mi NW 4.6 mph - N/A   Clear
10:53 PM 45.0 °F 43.5 °F 28.0 °F 52% 29.98 in 10.0 mi NNW 3.5 mph - N/A   Clear
11:53 PM 42.1 °F - 28.0 °F 58% 29.99 in 10.0 mi Calm Calm - N/A   Clear